Regional Weather Roundup
Issued by NWS Goodland, KS

Home | Current Version | Previous Version | Text Only | Print | Product List | Glossary Off
Versions: 1 2 3 4 5 6 7 8 9 10 11 12 13 14 15 16 17 18 19 20 21 22 23 24 25 26 27 28 29 30 31 32 33 34 35 36 37 38 39 40 41 42 43 44 45 46 47 48 49 50

000
ASUS43 KGLD 292008
RWRGLD

GOODLAND FORECAST AREA HOURLY WEATHER ROUNDUP
NATIONAL WEATHER SERVICE GOODLAND KS
100 PM MST THU JAN 29 2015

...OFFICIAL OBSERVATIONS...

CITY           SKY/WX    TMP DP  RH WIND       PRES   REMARKS
GOODLAND KS    SUNNY     45  22  40 N17       30.47F
HILL CITY KS   SUNNY     46  24  42 N16G22    30.48F
IMPERIAL NEB   SUNNY     44  22  41 N13       30.47F
MCCOOK NEB     SUNNY     45  22  40 N13G22    30.47F
AKRON CO       MOSUNNY   47  18  31 N13       30.45F
BURLINGTON CO  SUNNY     48  15  26 N15       30.45F
LIMON CO       CLOUDY    44  16  32 N8        30.46F
$$

...UNOFFICIAL OBSERVATIONS...

CITY           SKY/WX    TMP DP  RH WIND       PRES   REMARKS
COLBY KS       SUNNY     45  28  53 NW12G20   30.48S
GOVE KS          N/A     45  32  60 MISG        N/A
NORTON KS      SUNNY     45  19  36 NW7       30.46F
SHARON SPRINGS   N/A     47  25  42 NE8G16      N/A
KIT CARSON CO    N/A     49  21  33 MISG        N/A
$$


USA.gov is the U.S. government's official web portal to all federal, state and local government web resources and services.